Location: Unnamed
(25.2826°S, 57.6099°W)
Time: 22:31:45
(UTC-04:00)

Envisat - Pass Details

Date: 27 January 2026
Orbit: 761 x 763 km, 98.4° (Epoch: 18 February)

Event Time Altitude Azimuth Distance (km) Brightness Sun altitude
Exits shadow 02:31:03 11° 211° (SSW) 2,272 5.6 -33.4°
Drops below altitude 10° 02:31:09 10° 210° (SSW) 2,313 5.6 -33.4°
Sets 02:33:37 0° 202° (SSW) 3,247 6.5 -33.0°
